Retour au catalogue

STARLINK-34574

ActifCommunicationsVLEO
NORAD 64714·PAYLOAD·🇺🇸 United States

Lancé Jun 28, 2025 depuis Vandenberg Space Force Base

Loading…

Prochains Passages (prochaines 24 heures)

TLE

FraisSource: CelesTrak SupGP

Époque: Sep 14, 2026, 21:45 UTC

1 64714C 25142U   26257.90673611 -.00010632  00000+0 -36979-3 0  2578
2 64714  70.0012 195.6989 0002804 263.1930 166.1656 15.29592888    18

Suivez STARLINK-34574 en temps réel avec AllMySat

Download on the App Store